W5XO-8 Weather Reports


Display with metric or nautical units.
time (UTC)temp
F
wind
direction
speed
MPH
gust
MPH
rain 1hr
in
rain 24hr
in
rain mn
in
humidity
%
barometer
mb
20210421090657 43 26 8.0 0.0 0.00 0.00 0.00 66 1020.6
20210421084603 43 9 6.0 0.0 0.00 0.00 0.00 67 1020.7
20210421084053 43 5 6.0 0.0 0.00 0.00 0.00 67 1020.7
20210421083520 43 17 5.0 0.0 0.00 0.00 0.00 68 1020.6
20210421083117 43 15 5.0 0.0 0.00 0.00 0.00 68 1020.6
20210421082058 43 28 3.0 0.0 0.00 0.00 0.00 70 1020.6
20210421081133 43 44 2.0 0.0 0.00 0.00 0.00 72 1020.8
20210421080715 43 13 3.0 0.0 0.00 0.00 0.00 72 1020.8
20210421075457 43 11 1.0 0.0 0.00 0.00 0.00 73 1020.8
20210421074050 43 13 1.0 0.0 0.00 0.00 0.00 73 1020.8
20210421073646 43 355 1.0 0.0 0.00 0.00 0.00 73 1020.8
20210421073118 43 5 2.0 0.0 0.00 0.00 0.00 72 1020.3
20210421072032 44 360 5.0 0.0 0.00 0.00 0.00 72 1020.0
20210421071709 44 360 5.0 0.0 0.00 0.00 0.00 71 1020.0
20210421071056 44 355 5.0 0.0 0.00 0.00 0.00 71 1020.0
20210421070738 44 355 8.0 0.0 0.00 0.00 0.00 69 1020.1
20210421064019 45 5 10.0 0.0 0.00 0.00 0.00 68 1020.1
20210421063633 45 360 11.0 0.0 0.00 0.00 0.00 67 1020.1
20210421063106 45 347 12.0 0.0 0.00 0.00 0.00 67 1019.6
20210421062912 45 345 14.0 0.0 0.00 0.00 0.00 66 1019.6
20210421062245 46 360 18.0 0.0 0.00 0.00 0.00 65 1019.7
20210421061621 46 350 18.0 0.0 0.00 0.00 0.00 65 1019.7
20210421061109 46 339 15.0 0.0 0.00 0.00 0.00 66 1019.7
20210421060552 46 5 14.0 0.0 0.00 0.00 0.00 66 1019.7
20210421060444 47 330 13.0 0.0 0.00 0.00 0.00 67 1019.2
20210421060249 47 9 11.0 0.0 0.00 0.00 0.00 68 1019.2
20210421055027 47 5 10.0 0.0 0.00 0.00 0.00 68 1019.2
20210421054630 47 5 9.0 0.0 0.00 0.00 0.00 68 1019.2
20210421054021 47 360 9.0 0.0 0.00 0.00 0.00 68 1019.2
20210421053555 48 38 9.0 0.0 0.00 0.00 0.00 68 1019.2
20210421053142 48 350 9.0 0.0 0.00 0.00 0.00 68 1019.3
20210421053022 48 5 10.0 0.0 0.00 0.00 0.00 67 1019.3
20210421052430 48 355 11.0 0.0 0.00 0.00 0.00 67 1019.3
20210421051035 49 355 13.0 0.0 0.00 0.00 0.00 66 1019.1
20210421050044 50 355 15.0 0.0 0.00 0.00 0.00 66 1019.1
20210421045903 50 13 12.0 0.0 0.00 0.00 0.00 66 1019.1
20210421045154 50 12 10.0 0.0 0.00 0.00 0.00 66 1018.9
20210421044637 50 5 10.0 0.0 0.00 0.00 0.00 65 1018.9
20210421043550 51 338 14.0 0.0 0.00 0.00 0.00 64 1018.6
20210421042251 52 360 16.0 0.0 0.00 0.00 0.00 63 1018.6
20210421041527 52 355 11.0 0.0 0.00 0.00 0.00 64 1018.3
20210421041059 53 22 9.0 0.0 0.00 0.00 0.00 65 1018.3
20210421040046 53 321 8.0 0.0 0.00 0.00 0.00 65 1018.1
20210421035123 54 337 9.0 0.0 0.00 0.00 0.00 64 1018.1
20210421034044 55 355 10.0 0.0 0.00 0.00 0.00 63 1017.6
20210421033530 55 342 10.0 0.0 0.00 0.00 0.00 63 1017.3
20210421033140 55 336 9.0 0.0 0.00 0.00 0.00 63 1017.3
20210421032738 56 350 8.0 0.0 0.00 0.00 0.00 63 1017.3
20210421032157 56 19 7.0 0.0 0.00 0.00 0.00 62 1017.3
20210421031515 56 346 6.0 0.0 0.00 0.00 0.00 63 1017.0
20210421031039 56 345 7.0 0.0 0.00 0.00 0.00 63 1017.0
20210421030140 57 313 8.0 0.0 0.00 0.00 0.00 62 1016.6
20210421025853 57 338 8.0 0.0 0.00 0.00 0.00 62 1016.6
20210421025239 57 26 6.0 0.0 0.00 0.00 0.00 62 1016.2
20210421024613 57 345 6.0 0.0 0.00 0.00 0.00 63 1016.2
20210421024026 57 355 6.0 0.0 0.00 0.00 0.00 62 1016.2
20210421023619 58 360 7.0 0.0 0.00 0.00 0.00 62 1016.2
20210421023048 58 335 8.0 0.0 0.00 0.00 0.00 62 1015.9
20210421022815 58 346 8.0 0.0 0.00 0.00 0.00 62 1015.9
20210421021021 59 313 8.0 0.0 0.00 0.00 0.00 61 1015.5
20210421020531 59 346 8.0 0.0 0.00 0.00 0.00 61 1015.1
20210421020230 59 344 7.0 0.0 0.00 0.00 0.00 61 1015.1
20210421015330 60 5 10.0 0.0 0.00 0.00 0.00 60 1015.1
20210421014052 60 339 6.0 0.0 0.00 0.00 0.00 61 1014.9
20210421013149 60 329 7.0 0.0 0.00 0.00 0.00 60 1014.4
20210421012207 61 329 9.0 0.0 0.00 0.00 0.00 59 1014.4
20210421011529 61 355 10.0 0.0 0.00 0.00 0.00 59 1014.1
20210421011045 61 350 10.0 0.0 0.00 0.00 0.00 59 1014.1
20210421010048 61 350 10.0 0.0 0.00 0.00 0.00 58 1013.9
20210421005930 62 330 9.0 0.0 0.00 0.00 0.00 58 1013.9
20210421005400 62 339 10.0 0.0 0.00 0.00 0.00 58 1013.9
20210421004644 62 344 10.0 0.0 0.00 0.00 0.00 58 1013.4
20210421004044 62 327 10.0 0.0 0.00 0.00 0.00 58 1013.4
20210421003042 63 5 11.0 0.0 0.00 0.00 0.00 59 1013.3
20210421002248 63 38 8.0 0.0 0.00 0.00 0.00 58 1013.3
20210421001037 64 336 8.0 0.0 0.00 0.00 0.00 58 1013.1
20210421000610 64 340 10.0 0.0 0.00 0.00 0.00 57 1013.1
20210420235800 64 360 10.0 0.0 0.00 0.00 0.00 57 1012.9
20210420235355 64 349 13.0 0.0 0.00 0.00 0.00 57 1012.9
20210420234552 64 327 11.0 0.0 0.00 0.00 0.00 57 1012.7
20210420234055 64 344 8.0 0.0 0.00 0.00 0.00 58 1012.7
20210420233037 65 340 11.0 0.0 0.00 0.00 0.00 58 1012.6
20210420232846 65 319 9.0 0.0 0.00 0.00 0.00 58 1012.6
20210420231521 65 349 13.0 0.0 0.00 0.00 0.00 58 1012.9
20210420231035 65 333 11.0 0.0 0.00 0.00 0.00 57 1012.9
20210420230557 65 31 10.0 0.0 0.00 0.00 0.00 58 1012.9
20210420230014 66 322 12.0 0.0 0.00 0.00 0.00 58 1012.8
20210420225713 66 333 12.0 0.0 0.00 0.00 0.00 58 1012.8
20210420225209 66 341 12.0 0.0 0.00 0.00 0.00 58 1012.4
20210420224628 66 349 13.0 0.0 0.00 0.00 0.00 58 1012.4
20210420223518 66 14 14.0 0.0 0.00 0.00 0.00 58 1012.4
20210420223137 67 312 12.0 0.0 0.00 0.00 0.00 57 1012.4
20210420222653 67 333 11.0 0.0 0.00 0.00 0.00 58 1012.4
20210420221536 67 355 14.0 0.0 0.00 0.00 0.00 58 1012.3
20210420221046 67 340 12.0 0.0 0.00 0.00 0.00 58 1012.3
20210420220023 68 311 14.0 0.0 0.00 0.00 0.00 58 1012.1
20210420215739 68 336 14.0 0.0 0.00 0.00 0.00 58 1012.1
20210420215243 68 346 13.0 0.0 0.00 0.00 0.00 58 1012.1
20210420214514 68 327 14.0 0.0 0.00 0.00 0.00 58 1012.1
20210420214051 69 13 14.0 0.0 0.00 0.00 0.00 58 1012.1
20210420213510 69 332 13.0 0.0 0.00 0.00 0.00 58 1011.4
20210420213143 69 332 13.0 0.0 0.00 0.00 0.00 57 1011.4
20210420212743 70 360 13.0 0.0 0.00 0.00 0.00 59 1011.4
20210420212442 70 315 12.0 0.0 0.00 0.00 0.00 58 1011.4
20210420211036 70 350 12.0 0.0 0.00 0.00 0.00 58 1011.2
20210420210117 71 346 13.0 0.0 0.00 0.00 0.00 56 1011.0
20210420205604 72 350 13.0 0.0 0.00 0.00 0.00 57 1011.0
20210420205030 72 348 14.0 0.0 0.00 0.00 0.00 58 1010.8
20210420204714 72 347 13.0 0.0 0.00 0.00 0.00 57 1010.8
20210420204020 73 349 14.0 0.0 0.00 0.00 0.00 55 1010.8
20210420203607 73 329 11.0 0.0 0.00 0.00 0.00 55 1010.8
20210420203055 76 31 6.0 0.0 0.00 0.00 0.00 48 1010.5
20210420202134 76 30 1.0 0.0 0.00 0.00 0.00 44 1010.5
20210420201035 76 306 1.0 0.0 0.00 0.00 0.00 44 1010.8
20210420200017 76 314 2.0 0.0 0.00 0.00 0.00 44 1010.8
20210420195708 76 279 1.0 0.0 0.00 0.00 0.00 45 1010.8
20210420195034 76 312 2.0 0.0 0.00 0.00 0.00 43 1011.1
20210420194613 76 313 2.0 0.0 0.00 0.00 0.00 44 1011.1
20210420194026 75 272 2.0 0.0 0.00 0.00 0.00 45 1011.1
20210420193551 75 333 2.0 0.0 0.00 0.00 0.00 45 1011.1
20210420193042 76 279 3.0 0.0 0.00 0.00 0.00 45 1011.3
20210420192715 76 317 2.0 0.0 0.00 0.00 0.00 43 1011.3
20210420192156 76 37 1.0 0.0 0.00 0.00 0.00 45 1011.1
20210420191632 76 229 1.0 0.0 0.00 0.00 0.00 46 1011.1
20210420191058 75 230 3.0 0.0 0.00 0.00 0.00 46 1011.1
20210420190551 75 321 4.0 0.0 0.00 0.00 0.00 43 1011.1
20210420185118 75 325 2.0 0.0 0.00 0.00 0.00 44 1011.2
20210420184037 75 313 2.0 0.0 0.00 0.00 0.00 43 1011.5
20210420183143 75 240 2.0 0.0 0.00 0.00 0.00 43 1011.6
20210420182238 75 271 1.0 0.0 0.00 0.00 0.00 43 1011.6
20210420181639 75 236 1.0 0.0 0.00 0.00 0.00 45 1012.0
20210420181035 75 238 1.0 0.0 0.00 0.00 0.00 44 1012.0
20210420175618 74 240 3.0 0.0 0.00 0.00 0.00 44 1012.2
20210420175101 74 210 3.0 0.0 0.00 0.00 0.00 44 1012.2
20210420174555 74 262 2.0 0.0 0.00 0.00 0.00 46 1013.2
20210420174023 73 278 3.0 0.0 0.00 0.00 0.00 48 1013.2
20210420173559 73 240 3.0 0.0 0.00 0.00 0.00 47 1013.2
20210420173102 74 252 3.0 0.0 0.00 0.00 0.00 48 1013.3
20210420172724 73 283 2.0 0.0 0.00 0.00 0.00 47 1013.3
20210420172149 73 281 1.0 0.0 0.00 0.00 0.00 50 1013.7
20210420171920 72 248 3.0 0.0 0.00 0.00 0.00 49 1013.7
20210420171032 72 218 2.0 0.0 0.00 0.00 0.00 49 1013.7
20210420170234 72 267 1.0 0.0 0.00 0.00 0.00 51 1013.1
20210420170036 72 239 1.0 0.0 0.00 0.00 0.00 51 1013.1
20210420165623 71 228 1.0 0.0 0.00 0.00 0.00 52 1013.2
20210420164650 70 262 3.0 0.0 0.00 0.00 0.00 53 1013.2
20210420164028 70 227 4.0 0.0 0.00 0.00 0.00 53 1013.2
20210420163559 70 227 3.0 0.0 0.00 0.00 0.00 52 1013.2
20210420163048 70 221 3.0 0.0 0.00 0.00 0.00 54 1012.7
20210420162153 70 217 2.0 0.0 0.00 0.00 0.00 53 1012.7
20210420161020 69 187 4.0 0.0 0.00 0.00 0.00 56 1012.7
20210420160524 69 221 6.0 0.0 0.00 0.00 0.00 55 1012.7
20210420155705 69 252 2.0 0.0 0.00 0.00 0.00 57 1012.7
20210420155144 68 231 3.0 0.0 0.00 0.00 0.00 58 1012.7
20210420154537 68 201 5.0 0.0 0.00 0.00 0.00 59 1012.3
20210420154055 68 219 5.0 0.0 0.00 0.00 0.00 57 1012.3
20210420153026 67 209 5.0 0.0 0.00 0.00 0.00 59 1012.2
20210420152727 67 199 5.0 0.0 0.00 0.00 0.00 61 1012.2
20210420152322 67 207 4.0 0.0 0.00 0.00 0.00 62 1012.2
20210420151533 66 250 4.0 0.0 0.00 0.00 0.00 62 1012.2
20210420151040 66 235 3.0 0.0 0.00 0.00 0.00 62 1012.2
20210420150510 66 228 2.0 0.0 0.00 0.00 0.00 65 1012.2
20210420150131 65 229 4.0 0.0 0.00 0.00 0.00 66 1012.2
20210420145630 65 204 7.0 0.0 0.00 0.00 0.00 67 1012.2
20210420145121 64 219 5.0 0.0 0.00 0.00 0.00 66 1012.0
20210420144543 64 193 3.0 0.0 0.00 0.00 0.00 66 1012.0
20210420144105 63 190 5.0 0.0 0.00 0.00 0.00 70 1012.0
20210420143142 63 225 7.0 0.0 0.00 0.00 0.00 70 1012.0
20210420142211 62 200 5.0 0.0 0.00 0.00 0.00 72 1012.0
20210420141048 61 191 5.0 0.0 0.00 0.00 0.00 74 1012.3
20210420140152 60 221 5.0 0.0 0.00 0.00 0.00 77 1012.3
20210420135851 60 212 5.0 0.0 0.00 0.00 0.00 77 1012.3
20210420135227 60 232 4.0 0.0 0.00 0.00 0.00 79 1012.1
20210420134608 59 220 3.0 0.0 0.00 0.00 0.00 79 1012.1
20210420134020 59 229 2.0 0.0 0.00 0.00 0.00 80 1012.1
20210420133549 59 230 2.0 0.0 0.00 0.00 0.00 81 1012.1
20210420133031 58 208 3.0 0.0 0.00 0.00 0.00 81 1012.2
20210420132801 58 219 2.0 0.0 0.00 0.00 0.00 81 1012.2
20210420132250 57 218 1.0 0.0 0.00 0.00 0.00 82 1012.1
20210420131637 57 207 1.0 0.0 0.00 0.00 0.00 82 1012.1
20210420131024 56 211 1.0 0.0 0.00 0.00 0.00 82 1012.1
20210420130559 56 226 2.0 0.0 0.00 0.00 0.00 82 1012.1
20210420130042 56 218 2.0 0.0 0.00 0.00 0.00 83 1012.1
20210420125831 56 222 1.0 0.0 0.00 0.00 0.00 83 1012.1
20210420125214 55 221 1.0 0.0 0.00 0.00 0.00 83 1011.9
20210420124606 55 221 1.0 0.0 0.00 0.00 0.00 84 1011.9
20210420124042 55 227 0.0 0.0 0.00 0.00 0.00 84 1011.9
20210420123551 54 217 0.0 0.0 0.00 0.00 0.00 85 1011.9
20210420123044 54 217 0.0 0.0 0.00 0.00 0.00 85 1011.8
20210420122702 54 203 0.0 0.0 0.00 0.00 0.00 85 1011.8
20210420121639 54 209 0.0 0.0 0.00 0.00 0.00 85 1011.7
20210420121024 54 208 0.0 0.0 0.00 0.00 0.00 85 1011.7
20210420120601 54 205 0.0 0.0 0.00 0.00 0.00 84 1011.7
20210420115757 54 198 0.0 0.0 0.00 0.00 0.00 84 1011.7
20210420114602 55 199 1.0 0.0 0.00 0.00 0.00 84 1011.3
20210420114102 55 207 1.0 0.0 0.00 0.00 0.00 84 1011.3
20210420113536 55 196 1.0 0.0 0.00 0.00 0.00 84 1011.3
20210420112644 55 207 1.0 0.0 0.00 0.00 0.00 84 1011.2
20210420111520 55 186 2.0 0.0 0.00 0.00 0.00 83 1011.0
20210420111119 55 181 2.0 0.0 0.00 0.00 0.00 83 1011.0
20210420105718 55 194 4.0 0.0 0.00 0.00 0.00 83 1010.8
20210420104551 55 184 3.0 0.0 0.00 0.00 0.00 83 1010.7
20210420103546 55 201 1.0 0.0 0.00 0.00 0.00 83 1010.7
20210420103224 55 194 1.0 0.0 0.00 0.00 0.00 83 1010.7
20210420102549 55 209 1.0 0.0 0.00 0.00 0.00 83 1010.7
20210420101626 55 194 0.0 0.0 0.00 0.00 0.00 83 1010.7
20210420100513 56 190 2.0 0.0 0.00 0.00 0.00 82 1010.7
20210420100120 56 192 3.0 0.0 0.00 0.00 0.00 82 1010.7
20210420095622 56 185 3.0 0.0 0.00 0.00 0.00 82 1010.7
20210420095231 56 184 3.0 0.0 0.00 0.00 0.00 81 1010.7
20210420094533 56 189 2.0 0.0 0.00 0.00 0.00 81 1010.7
20210420094052 56 186 3.0 0.0 0.00 0.00 0.00 81 1010.7
20210420093523 56 188 3.0 0.0 0.00 0.00 0.00 81 1010.7
20210420093058 56 185 2.0 0.0 0.00 0.00 0.00 81 1010.7
20210420092527 56 184 1.0 0.0 0.00 0.00 0.00 81 1010.7
20210420092113 57 183 1.0 0.0 0.00 0.00 0.00 80 1010.7
20210420091524 57 179 0.0 0.0 0.00 0.00 0.00 80 1010.7
20210420091052 57 194 0.0 0.0 0.00 0.00 0.00 80 1010.7